EN

Hourly Weather Ivano-Kazanka

Today, 1 October, Thursday

Time Temperature Precipitation Wind Pressure Humidity
00:00 +11°C° 0 mm 1 mps 758 mmHg 85%
01:00 +11°C° 0 mm 1 mps 758 mmHg 86%
02:00 +10°C° 0 mm 1 mps 758 mmHg 86%
03:00 +10°C° 0 mm 1 mps 758 mmHg 87%
04:00 +9°C° 0 mm 0 mps 758 mmHg 88%
05:00 +8°C° 0 mm 0 mps 758 mmHg 88%
06:00 +8°C° 0 mm 0 mps 758 mmHg 88%
07:00 +8°C° 0 mm 0 mps 758 mmHg 89%
08:00 +11°C° 0 mm 1 mps 758 mmHg 84%
09:00 +13°C° 0 mm 1 mps 758 mmHg 78%
10:00 +14°C° 0 mm 1 mps 758 mmHg 73%
11:00 +15°C° 0 mm 1 mps 757 mmHg 69%
12:00 +16°C° 0 mm 0 mps 757 mmHg 65%
13:00 +17°C° 0 mm 0 mps 757 mmHg 62%
14:00 +17°C° 0 mm 0 mps 757 mmHg 62%
15:00 +17°C° 0 mm 0 mps 757 mmHg 61%
16:00 +17°C° 0 mm 0 mps 757 mmHg 61%
17:00 +15°C° 0 mm 0 mps 757 mmHg 67%
18:00 +14°C° 0 mm 0 mps 757 mmHg 72%
19:00 +12°C° 0 mm 0 mps 756 mmHg 78%
20:00 +12°C° 0 mm 0 mps 757 mmHg 79%
21:00 +11°C° 0 mm 0 mps 757 mmHg 80%
22:00 +11°C° 0 mm 0 mps 757 mmHg 82%
23:00 +10°C° 0 mm 0 mps 757 mmHg 83%

Tomorrow, 2 October, Friday

Time Temperature Precipitation Wind Pressure Humidity
00:00 +10°C° 0 mm 0 mps 756 mmHg 84%
01:00 +10°C° 0 mm 0 mps 756 mmHg 85%
02:00 +9°C° 0 mm 0 mps 756 mmHg 85%
03:00 +9°C° 0 mm 0 mps 757 mmHg 86%
04:00 +9°C° 0 mm 0 mps 757 mmHg 87%
05:00 +9°C° 0 mm 0 mps 757 mmHg 88%
06:00 +9°C° 0 mm 0 mps 757 mmHg 88%
07:00 +9°C° 0 mm 0 mps 756 mmHg 89%
08:00 +11°C° 0 mm 1 mps 756 mmHg 84%
09:00 +13°C° 0 mm 1 mps 756 mmHg 79%
10:00 +14°C° 0 mm 1 mps 756 mmHg 74%
11:00 +15°C° 0 mm 1 mps 756 mmHg 71%
12:00 +16°C° 0 mm 1 mps 756 mmHg 67%
13:00 +18°C° 0 mm 1 mps 756 mmHg 64%
14:00 +18°C° 0 mm 1 mps 755 mmHg 64%
15:00 +18°C° 0 mm 1 mps 755 mmHg 63%
16:00 +18°C° 0 mm 1 mps 755 mmHg 63%
17:00 +16°C° 0 mm 1 mps 755 mmHg 68%
18:00 +13°C° 0 mm 0 mps 755 mmHg 74%
19:00 +12°C° 0 mm 0 mps 755 mmHg 79%
20:00 +11°C° 0 mm 0 mps 755 mmHg 80%
21:00 +11°C° 0 mm 0 mps 755 mmHg 82%
22:00 +11°C° 0 mm 0 mps 755 mmHg 83%
23:00 +10°C° 0 mm 0 mps 755 mmHg 84%

Day after tomorrow, 3 October, Saturday

Time Temperature Precipitation Wind Pressure Humidity
00:00 +10°C° 0 mm 0 mps 755 mmHg 84%
01:00 +10°C° 0 mm 0 mps 754 mmHg 85%
02:00 +9°C° 0 mm 0 mps 754 mmHg 86%
03:00 +9°C° 0 mm 0 mps 754 mmHg 87%
04:00 +9°C° 0 mm 0 mps 754 mmHg 88%
05:00 +9°C° 0 mm 0 mps 755 mmHg 88%
06:00 +9°C° 0 mm 0 mps 755 mmHg 88%
07:00 +8°C° 0 mm 0 mps 755 mmHg 89%
08:00 +11°C° 0 mm 1 mps 754 mmHg 85%
09:00 +12°C° 0 mm 1 mps 754 mmHg 80%
10:00 +14°C° 0 mm 1 mps 754 mmHg 75%
11:00 +15°C° 0 mm 2 mps 754 mmHg 71%
12:00 +15°C° 0 mm 2 mps 754 mmHg 67%
13:00 +16°C° 0 mm 2 mps 754 mmHg 63%
14:00 +16°C° 0 mm 2 mps 754 mmHg 64%
15:00 +16°C° 0 mm 3 mps 754 mmHg 64%
16:00 +16°C° 0 mm 3 mps 754 mmHg 65%
17:00 +14°C° 0 mm 2 mps 754 mmHg 71%
18:00 +13°C° 0 mm 2 mps 754 mmHg 76%
19:00 +12°C° 0 mm 2 mps 754 mmHg 82%
20:00 +10°C° 0 mm 2 mps 754 mmHg 83%
21:00 +10°C° 0 mm 2 mps 754 mmHg 84%
22:00 +10°C° 0 mm 2 mps 755 mmHg 84%
23:00 +10°C° 0 mm 2 mps 755 mmHg 82%

4 October, Sunday

Time Temperature Precipitation Wind Pressure Humidity
00:00 +10°C° 0 mm 2 mps 755 mmHg 80%
01:00 +10°C° 0 mm 2 mps 755 mmHg 78%
02:00 +9°C° 0 mm 2 mps 755 mmHg 79%
03:00 +9°C° 0 mm 2 mps 755 mmHg 79%
04:00 +8°C° 0 mm 2 mps 755 mmHg 79%
05:00 +8°C° 0 mm 2 mps 755 mmHg 83%
06:00 +7°C° 0 mm 2 mps 755 mmHg 86%
07:00 +6°C° 0 mm 2 mps 756 mmHg 90%
08:00 +7°C° 0 mm 2 mps 756 mmHg 83%
09:00 +8°C° 0 mm 2 mps 756 mmHg 77%
10:00 +9°C° 0 mm 2 mps 756 mmHg 71%
11:00 +10°C° 0 mm 2 mps 756 mmHg 66%
12:00 +12°C° 0 mm 2 mps 756 mmHg 60%
13:00 +13°C° 0 mm 2 mps 756 mmHg 55%
14:00 +13°C° 0 mm 2 mps 756 mmHg 56%
15:00 +12°C° 0 mm 3 mps 756 mmHg 57%
16:00 +11°C° 0 mm 3 mps 756 mmHg 58%
17:00 +10°C° 0 mm 3 mps 756 mmHg 63%
18:00 +9°C° 0 mm 3 mps 756 mmHg 68%
19:00 +7°C° 0 mm 3 mps 756 mmHg 73%
20:00 +5°C° 0 mm 3 mps 756 mmHg 74%
21:00 +5°C° 0 mm 3 mps 756 mmHg 75%
22:00 +5°C° 0 mm 2 mps 756 mmHg 76%
23:00 +5°C° 0 mm 2 mps 756 mmHg 78%

5 October, Monday

Time Temperature Precipitation Wind Pressure Humidity
00:00 +5°C° 0 mm 2 mps 757 mmHg 81%
01:00 +5°C° 0 mm 1 mps 757 mmHg 84%
02:00 +5°C° 0 mm 1 mps 757 mmHg 85%
03:00 +5°C° 0 mm 1 mps 757 mmHg 87%
04:00 +5°C° 0 mm 1 mps 757 mmHg 89%
05:00 +5°C° 0 mm 1 mps 757 mmHg 89%
06:00 +4°C° 0 mm 0 mps 757 mmHg 90%
07:00 +4°C° 0 mm 0 mps 757 mmHg 90%
08:00 +6°C° 0 mm 1 mps 757 mmHg 84%
09:00 +8°C° 0 mm 1 mps 757 mmHg 78%
10:00 +9°C° 0 mm 1 mps 757 mmHg 72%
11:00 +10°C° 0 mm 1 mps 757 mmHg 68%
12:00 +11°C° 0 mm 1 mps 757 mmHg 65%
13:00 +12°C° 0 mm 2 mps 757 mmHg 62%
14:00 +12°C° 0 mm 2 mps 756 mmHg 61%
15:00 +12°C° 0 mm 1 mps 756 mmHg 59%
16:00 +12°C° 0 mm 1 mps 756 mmHg 58%
17:00 +10°C° 0 mm 1 mps 756 mmHg 61%
18:00 +9°C° 0 mm 1 mps 756 mmHg 64%
19:00 +8°C° 0 mm 1 mps 756 mmHg 67%
20:00 +7°C° 0 mm 1 mps 756 mmHg 67%
21:00 +6°C° 0 mm 0 mps 756 mmHg 68%
22:00 +5°C° 0 mm 0 mps 756 mmHg 68%
23:00 +5°C° 0 mm 0 mps 756 mmHg 69%

6 October, Tuesday

Time Temperature Precipitation Wind Pressure Humidity
00:00 +5°C° 0 mm 0 mps 756 mmHg 70%
01:00 +4°C° 0 mm 0 mps 756 mmHg 71%
02:00 +4°C° 0 mm 0 mps 756 mmHg 73%
03:00 +4°C° 0 mm 0 mps 756 mmHg 75%
04:00 +5°C° 0 mm 1 mps 756 mmHg 77%
05:00 +5°C° 0 mm 1 mps 756 mmHg 81%
06:00 +5°C° 0 mm 1 mps 756 mmHg 84%
07:00 +5°C° 0 mm 1 mps 756 mmHg 87%
08:00 +5°C° 0 mm 2 mps 755 mmHg 81%
09:00 +7°C° 0 mm 2 mps 755 mmHg 75%
10:00 +9°C° 0 mm 2 mps 755 mmHg 69%
11:00 +10°C° 0 mm 2 mps 755 mmHg 65%
12:00 +11°C° 0 mm 3 mps 755 mmHg 61%
13:00 +12°C° 0 mm 3 mps 755 mmHg 56%
14:00 +13°C° 0 mm 2 mps 754 mmHg 57%
15:00 +13°C° 0 mm 2 mps 754 mmHg 58%
16:00 +13°C° 0 mm 2 mps 754 mmHg 59%
17:00 +12°C° 0 mm 1 mps 754 mmHg 64%
18:00 +11°C° 0 mm 1 mps 754 mmHg 68%
19:00 +9°C° 0 mm 1 mps 754 mmHg 72%
20:00 +9°C° 0 mm 1 mps 754 mmHg 74%
21:00 +9°C° 0 mm 1 mps 754 mmHg 75%
22:00 +8°C° 0 mm 1 mps 754 mmHg 76%
23:00 +8°C° 0 mm 1 mps 753 mmHg 79%
Show more

We Need Your Consent

Meteoprog and our Service Providers may store and access personal data such as cookies, device identifiers or other similar technologies on your device and process such data to personalise content and ads, as well as provide social media features and to analyse the traffic.

  • Store and/or access information on your device

    Cookies, device identifiers or other information can be stored or accessed on your device for the purposes indicated above.

  • Personalised ads and content, ad and content measurement, audience insights, and products development

    Ads and content can be personalised based on a profile. More data can be added to better personalise ads and content. Ad and content performance can be measured. Insights about the audience who saw the ads and content can be derived. Such data can be used to develop or improve user’s experience, systems and software.

By clicking ‘I Agree’ you will allow the use of indicated cookies, device identifiers, web beacons or other similar technologies. Your settings can be changed in the browser on your device.

For certain purposes, legitimate interests may be relied on, rather than consent. You can read more about this in our Privacy and Cookie Policy.